Idabel, OK

2:55 PM CDT on March 30, 2017 (GMT -0500)
Idabel

Weather History for K4O4 - March, 2013

Change the Weather History Date:

Sunday, March 24, 2013

  Actual Average (KPRX) Record (KPRX)
Temperature  
Mean Temperature 42 °F -  
Max Temperature 48 °F 64 °F 80 °F (2007)
Min Temperature 35 °F 46 °F 28 °F (2006)
Degree Days  
Heating Degree Days 24    
Moisture  
Dew Point 31 °F    
Average Humidity 68    
Maximum Humidity 93    
Minimum Humidity 43    
Precipitation  
Precipitation 0.02 in - - ()
Sea Level Pressure  
Sea Level Pressure 29.96 in    
Wind  
Wind Speed 13 mph (NW)    
Max Wind Speed 28 mph    
Max Gust Speed 39 mph    
Visibility 10 miles    
Events      
Averages and records for this station are not official NWS values.
T = Trace of Precipitation, MM = Missing Value Source: NWS Daily Summary

Daily Weather History Graph

Daily Weather History Graph

Search for Another Location

Airport or City:

Trip Planner

Search our weather history database for the weather conditions in past years. The results will help you decide how hot, cold, wet, or windy it might be!

Date:

Astronomy

Mar. 24, 2013 Rise Set
Actual Time 7:17 AM CDT 7:34 PM CDT
Civil Twilight 6:52 AM CDT 7:59 PM CDT
Nautical Twilight 6:23 AM CDT 8:28 PM CDT
Astronomical Twilight 5:53 AM CDT 8:58 PM CDT
Moon 5:08 PM CDT (3/24) 5:21 AM CDT (3/24)
Length of Visible Light 13h 06m
Length of Day
12h 17m
Waxing Gibbous, 92% of the Moon is Illuminated
Mar 24
Waxing Gibbous
Mar 27
Full
Apr 2
Last Quarter
Apr 10
New
Apr 18
First Quarter

Hourly Weather History & Observations

Time (CDT) Temp. Windchill Dew Point Humidity Pressure Visibility Wind Dir Wind Speed Gust Speed Precip Events Conditions
12:15 AM 46.4 °F 44.3 °F 44.6 °F 93% 29.74 in 5.0 mi WNW 4.6 mph - N/A   Overcast
12:35 AM 46.4 °F 42.9 °F 44.6 °F 93% 29.76 in 4.0 mi WNW 6.9 mph - N/A   Overcast
12:55 AM 46.4 °F 42.4 °F 44.6 °F 93% 29.78 in 7.0 mi West 8.1 mph - N/A   Overcast
1:15 AM 46.4 °F 44.3 °F 44.6 °F 93% 29.78 in 3.0 mi WNW 4.6 mph - N/A   Overcast
1:35 AM 46.4 °F 42.9 °F 44.6 °F 93% 29.77 in 4.0 mi West 6.9 mph 19.6 mph N/A   Overcast
1:55 AM 46.4 °F 41.5 °F 44.6 °F 93% 29.79 in 4.0 mi WNW 10.4 mph 18.4 mph 0.02 in   Overcast
2:35 AM 44.6 °F 39.7 °F 42.8 °F 93% 29.74 in 10.0 mi NNW 9.2 mph - N/A   Overcast
2:55 AM 44.6 °F 40.7 °F 42.8 °F 93% 29.78 in 10.0 mi WNW 6.9 mph - N/A   Overcast
3:15 AM 44.6 °F 39.2 °F 42.8 °F 93% 29.79 in 10.0 mi West 10.4 mph - N/A   Overcast
3:35 AM 44.6 °F 38.4 °F 42.8 °F 93% 29.78 in 10.0 mi WNW 12.7 mph 18.4 mph N/A   Overcast
3:55 AM 44.6 °F 37.2 °F 42.8 °F 93% 29.79 in 10.0 mi WNW 17.3 mph 23.0 mph N/A   Overcast
4:15 AM 42.8 °F 34.5 °F 41.0 °F 93% 29.80 in 10.0 mi West 18.4 mph 27.6 mph N/A   Overcast
4:35 AM 42.8 °F 34.8 °F 41.0 °F 93% 29.81 in 10.0 mi WNW 17.3 mph 27.6 mph N/A   Overcast
4:55 AM 42.8 °F 35.1 °F 39.2 °F 87% 29.81 in 10.0 mi WNW 16.1 mph 27.6 mph N/A   Overcast
5:15 AM 42.8 °F 34.0 °F 37.4 °F 81% 29.82 in 10.0 mi WNW 20.7 mph 26.5 mph N/A   Overcast
5:35 AM 41.0 °F 31.9 °F 35.6 °F 81% 29.83 in 10.0 mi WNW 19.6 mph 28.8 mph N/A   Overcast
5:55 AM 41.0 °F 30.9 °F 33.8 °F 76% 29.84 in 10.0 mi WNW 24.2 mph 35.7 mph N/A   Overcast
6:15 AM 41.0 °F 32.5 °F 33.8 °F 76% 29.85 in 10.0 mi WNW 17.3 mph 25.3 mph N/A   Overcast
6:55 AM 39.2 °F 28.7 °F 32.0 °F 75% 29.87 in 10.0 mi WNW 23.0 mph 33.4 mph N/A   Overcast
7:15 AM 37.4 °F 26.9 °F 32.0 °F 81% 29.88 in 10.0 mi NW 20.7 mph 27.6 mph N/A   Overcast
7:35 AM 37.4 °F 28.5 °F 32.0 °F 81% 29.89 in 10.0 mi WNW 15.0 mph 26.5 mph N/A   Overcast
7:55 AM 37.4 °F 28.9 °F 30.2 °F 75% 29.90 in 10.0 mi WNW 13.8 mph 28.8 mph N/A   Overcast
8:15 AM 37.4 °F 27.8 °F 30.2 °F 75% 29.90 in 10.0 mi WNW 17.3 mph 27.6 mph N/A   Overcast
8:35 AM 37.4 °F 27.8 °F 30.2 °F 75% 29.92 in 10.0 mi WNW 17.3 mph 25.3 mph N/A   Overcast
8:55 AM 37.4 °F 25.4 °F 28.4 °F 70% 29.93 in 10.0 mi WNW 27.6 mph 39.1 mph N/A   Overcast
9:15 AM 37.4 °F 26.6 °F 28.4 °F 70% 29.94 in 10.0 mi NW 21.9 mph 32.2 mph N/A   Overcast
9:35 AM 37.4 °F 25.9 °F 28.4 °F 70% 29.95 in 10.0 mi WNW 25.3 mph 33.4 mph N/A   Overcast
9:55 AM 37.4 °F 27.2 °F 28.4 °F 70% 29.96 in 10.0 mi WNW 19.6 mph 25.3 mph N/A   Overcast
10:15 AM 37.4 °F 26.1 °F 28.4 °F 70% 29.97 in 10.0 mi WNW 24.2 mph 31.1 mph N/A   Overcast
10:35 AM 37.4 °F 27.5 °F 28.4 °F 70% 29.97 in 10.0 mi WNW 18.4 mph 26.5 mph N/A   Overcast
10:55 AM 37.4 °F 26.9 °F 28.4 °F 70% 29.98 in 10.0 mi NW 20.7 mph 31.1 mph N/A   Overcast
11:15 AM 39.2 °F 29.3 °F 30.2 °F 70% 29.99 in 10.0 mi NW 20.7 mph 29.9 mph N/A   Overcast
11:35 AM 39.2 °F 30.5 °F 28.4 °F 65% 30.00 in 10.0 mi WNW 16.1 mph 32.2 mph N/A   Overcast
12:15 PM 41.0 °F 31.6 °F 30.2 °F 65% 30.02 in 10.0 mi NW 20.7 mph 27.6 mph N/A   Mostly Cloudy
12:35 PM 41.0 °F 31.1 °F 28.4 °F 61% 30.02 in 10.0 mi NW 23.0 mph 31.1 mph N/A   Mostly Cloudy
12:55 PM 41.0 °F 32.5 °F 30.2 °F 65% 30.03 in 10.0 mi NW 17.3 mph 27.6 mph N/A   Mostly Cloudy
1:15 PM 41.0 °F 32.8 °F 28.4 °F 61% 30.03 in 10.0 mi WNW 16.1 mph 27.6 mph N/A   Overcast
1:35 PM 41.0 °F 31.9 °F 30.2 °F 65% 30.03 in 10.0 mi NW 19.6 mph 29.9 mph N/A   Overcast
1:55 PM 41.0 °F 31.9 °F 28.4 °F 61% 30.03 in 10.0 mi NW 19.6 mph 28.8 mph N/A   Mostly Cloudy
2:15 PM 42.8 °F 33.8 °F 28.4 °F 57% 30.03 in 10.0 mi NW 21.9 mph 29.9 mph N/A   Mostly Cloudy
2:35 PM 42.8 °F 34.5 °F 28.4 °F 57% 30.03 in 10.0 mi NNW 18.4 mph 26.5 mph N/A   Mostly Cloudy
2:55 PM 42.8 °F 34.5 °F 28.4 °F 57% 30.03 in 10.0 mi NW 18.4 mph 26.5 mph N/A   Mostly Cloudy
3:15 PM 42.8 °F 34.8 °F 28.4 °F 57% 30.03 in 10.0 mi NW 17.3 mph - N/A   Mostly Cloudy
3:35 PM 44.6 °F 37.8 °F 28.4 °F 53% 30.03 in 10.0 mi WNW 15.0 mph 26.5 mph N/A   Mostly Cloudy
3:55 PM 44.6 °F 35.7 °F 26.6 °F 49% 30.03 in 10.0 mi NNW 24.2 mph 29.9 mph N/A   Scattered Clouds
4:15 PM 46.4 °F 39.5 °F 28.4 °F 50% 30.03 in 10.0 mi NW 17.3 mph 23.0 mph N/A   Scattered Clouds
4:35 PM 46.4 °F 39.5 °F 28.4 °F 50% 30.03 in 10.0 mi NNW 17.3 mph 21.9 mph N/A   Scattered Clouds
4:55 PM 48.2 °F - 26.6 °F 43% 30.03 in 10.0 mi NW 18.4 mph 26.5 mph N/A   Scattered Clouds
5:15 PM 48.2 °F - 26.6 °F 43% 30.04 in 10.0 mi NW 16.1 mph 24.2 mph N/A   Scattered Clouds
5:35 PM 46.4 °F 40.1 °F 26.6 °F 46% 30.04 in 10.0 mi NW 15.0 mph 21.9 mph N/A   Scattered Clouds
5:55 PM 46.4 °F 40.4 °F 26.6 °F 46% 30.04 in 10.0 mi NW 13.8 mph 18.4 mph N/A   Clear
6:15 PM 46.4 °F 41.1 °F 26.6 °F 46% 30.04 in 10.0 mi NW 11.5 mph 20.7 mph N/A   Clear
6:35 PM 46.4 °F 40.1 °F 26.6 °F 46% 30.06 in 10.0 mi NNW 15.0 mph 18.4 mph N/A   Clear
6:55 PM 46.4 °F 41.9 °F 26.6 °F 46% 30.06 in 10.0 mi NW 9.2 mph - N/A   Clear
7:15 PM 44.6 °F 40.2 °F 26.6 °F 49% 30.06 in 10.0 mi NNW 8.1 mph - N/A   Clear
7:35 PM 42.8 °F 38.0 °F 26.6 °F 53% 30.07 in 10.0 mi NNW 8.1 mph - N/A   Clear
7:55 PM 41.0 °F 35.8 °F 26.6 °F 57% 30.08 in 10.0 mi NNW 8.1 mph - N/A   Clear
8:15 PM 39.2 °F 32.5 °F 26.6 °F 61% 30.08 in 10.0 mi NNW 10.4 mph 17.3 mph N/A   Clear
8:35 PM 39.2 °F 33.0 °F 24.8 °F 56% 30.09 in 10.0 mi NNW 9.2 mph - N/A   Clear
8:55 PM 37.4 °F 32.1 °F 24.8 °F 60% 30.10 in 10.0 mi NNW 6.9 mph - N/A   Clear
9:15 PM 37.4 °F 32.8 °F 24.8 °F 60% 30.11 in 10.0 mi NNW 5.8 mph - N/A   Clear
9:55 PM 37.4 °F 30.3 °F 24.8 °F 60% 30.12 in 10.0 mi NNW 10.4 mph - N/A   Clear
10:15 PM 37.4 °F 29.8 °F 24.8 °F 60% 30.13 in 10.0 mi NNW 11.5 mph - N/A   Clear
10:35 PM 37.4 °F 29.8 °F 24.8 °F 60% 30.13 in 10.0 mi NNW 11.5 mph 16.1 mph N/A   Clear
10:55 PM 35.6 °F 28.0 °F 23.0 °F 60% 30.13 in 10.0 mi NNW 10.4 mph - N/A   Clear
11:15 PM 35.6 °F 28.6 °F 23.0 °F 60% 30.13 in 10.0 mi NNW 9.2 mph - N/A   Clear
11:35 PM 35.6 °F 28.0 °F 23.0 °F 60% 30.14 in 10.0 mi NNW 10.4 mph - N/A   Clear
11:55 PM 35.6 °F 27.1 °F 23.0 °F 60% 30.14 in 10.0 mi NNW 12.7 mph - N/A   Clear